13-02-2023, 00:00:04,    131,    2.5,    5.4,   0.00,   0.00, 1029.7,   73.1, -999.0
13-02-2023, 00:00:14,    137,    1.9,    5.4,   0.00,   0.00, 1029.7,   72.9, -999.0
13-02-2023, 00:00:24,    132,    2.3,    5.4,   0.00,   0.00, 1029.8,   72.5, -999.0
13-02-2023, 00:00:33,    114,    1.3,    5.2,   0.00,   0.00, 1029.7,   72.5, -999.0
13-02-2023, 00:00:44,    107,    1.3,    5.3,   0.00,   0.00, 1029.7,   72.5, -999.0
13-02-2023, 00:00:54,    130,    1.5,    5.3,   0.00,   0.00, 1029.7,   72.9, -999.0
13-02-2023, 00:01:03,    130,    0.8,    5.4,   0.00,   0.00, 1029.7,   73.0, -999.0
13-02-2023, 00:01:13,    132,    0.4,    5.4,   0.00,   0.00, 1029.7,   73.0, -999.0
13-02-2023, 00:01:24,    153,    1.1,    5.4,   0.00,   0.00, 1029.7,   73.0, -999.0
13-02-2023, 00:01:34,    164,    1.2,    5.4,   0.00,   0.00, 1029.7,   72.6, -999.0
13-02-2023, 00:01:43,    112,    0.9,    5.3,   0.00,   0.00, 1029.7,   72.4, -999.0
13-02-2023, 00:01:54,    149,    1.6,    5.4,   0.00,   0.00, 1029.7,   72.5, -999.0
13-02-2023, 00:02:04,    110,    1.5,    5.3,   0.00,   0.00, 1029.7,   72.6, -999.0
13-02-2023, 00:02:13,    124,    1.9,    5.4,   0.00,   0.00, 1029.7,   72.6, -999.0
13-02-2023, 00:02:23,    123,    1.0,    5.4,   0.00,   0.00, 1029.7,   72.8, -999.0
13-02-2023, 00:02:34,    123,    0.7,    5.4,   0.00,   0.00, 1029.7,   72.8, -999.0
13-02-2023, 00:02:43,    127,    0.1,    5.4,   0.00,   0.00, 1029.6,   72.5, -999.0
13-02-2023, 00:02:53,    128,    0.1,    5.2,   0.00,   0.00, 1029.6,   72.5, -999.0
13-02-2023, 00:03:03,    129,    0.8,    5.5,   0.00,   0.00, 1029.7,   72.7, -999.0
13-02-2023, 00:03:14,    103,    1.5,    5.4,   0.00,   0.00, 1029.7,   72.5, -999.0
13-02-2023, 00:03:23,    112,    1.3,    5.4,   0.00,   0.00, 1029.7,   72.5, -999.0
13-02-2023, 00:03:33,    119,    0.6,    5.4,   0.00,   0.00, 1029.7,   72.6, -999.0
13-02-2023, 00:03:43,    119,    0.0,    5.4,   0.00,   0.00, 1029.5,   72.2, -999.0
13-02-2023, 00:03:53,    119,    0.0,    5.4,   0.00,   0.00, 1029.6,   72.3, -999.0
13-02-2023, 00:04:03,    129,    0.5,    5.5,   0.00,   0.00, 1029.7,   72.5, -999.0
13-02-2023, 00:04:13,    129,    0.1,    5.3,   0.00,   0.00, 1029.6,   72.0, -999.0
13-02-2023, 00:04:23,    129,    0.0,    5.3,   0.00,   0.00, 1029.6,   71.8, -999.0
13-02-2023, 00:04:33,    129,    0.0,    5.3,   0.00,   0.00, 1029.5,   71.9, -999.0
13-02-2023, 00:04:43,    129,    0.0,    5.3,   0.00,   0.00, 1029.5,   72.0, -999.0
13-02-2023, 00:04:53,    129,    0.2,    5.4,   0.00,   0.00, 1029.6,   72.3, -999.0
13-02-2023, 00:05:03,    129,    0.8,    5.4,   0.00,   0.00, 1029.6,   72.5, -999.0
13-02-2023, 00:05:13,    127,    0.6,    5.4,   0.00,   0.00, 1029.7,   72.4, -999.0
13-02-2023, 00:05:23,    129,    0.3,    5.3,   0.00,   0.00, 1029.6,   72.2, -999.0
13-02-2023, 00:05:33,    129,    0.1,    5.3,   0.00,   0.00, 1029.5,   72.1, -999.0
13-02-2023, 00:05:43,    130,    0.1,    5.3,   0.00,   0.00, 1029.5,   72.3, -999.0
13-02-2023, 00:05:53,    129,    0.4,    5.3,   0.00,   0.00, 1029.6,   72.5, -999.0
13-02-2023, 00:06:03,    130,    0.0,    5.3,   0.00,   0.00, 1029.5,   72.3, -999.0
13-02-2023, 00:06:13,    136,    0.2,    5.4,   0.00,   0.00, 1029.5,   72.5, -999.0
13-02-2023, 00:06:23,    137,    0.0,    5.3,   0.00,   0.00, 1029.4,   72.2, -999.0
13-02-2023, 00:06:33,    147,    0.7,    5.3,   0.00,   0.00, 1029.6,   72.5, -999.0
13-02-2023, 00:06:43,    148,    0.1,    5.3,   0.00,   0.00, 1029.5,   72.3, -999.0
13-02-2023, 00:06:53,    149,    0.0,    5.2,   0.00,   0.00, 1029.5,   72.1, -999.0
13-02-2023, 00:07:03,    129,    0.5,    5.3,   0.00,   0.00, 1029.6,   72.4, -999.0
13-02-2023, 00:07:13,    127,    1.0,    5.3,   0.00,   0.00, 1029.6,   72.6, -999.0
13-02-2023, 00:07:23,    127,    0.2,    5.4,   0.00,   0.00, 1029.5,   72.5, -999.0
13-02-2023, 00:07:33,    127,    0.0,    5.3,   0.00,   0.00, 1029.4,   72.3, -999.0
13-02-2023, 00:07:43,    127,    0.0,    5.2,   0.00,   0.00, 1029.5,   72.4, -999.0
13-02-2023, 00:07:53,    129,    0.0,    5.2,   0.00,   0.00, 1029.5,   72.3, -999.0
13-02-2023, 00:08:03,    184,    0.6,    5.3,   0.00,   0.00, 1029.5,   72.4, -999.0
13-02-2023, 00:08:13,    165,    0.0,    5.2,   0.00,   0.00, 1029.5,   72.2, -999.0
13-02-2023, 00:08:23,    164,    0.1,    5.2,   0.00,   0.00, 1029.5,   72.3, -999.0
13-02-2023, 00:08:33,    164,    0.0,    5.1,   0.00,   0.00, 1029.4,   72.2, -999.0
13-02-2023, 00:08:43,    164,    0.0,    5.2,   0.00,   0.00, 1029.4,   72.3, -999.0
13-02-2023, 00:08:53,    164,    0.0,    5.1,   0.00,   0.00, 1029.4,   72.4, -999.0
13-02-2023, 00:09:03,    162,    0.2,    5.1,   0.00,   0.00, 1029.4,   72.6, -999.0
13-02-2023, 00:09:13,    124,    0.7,    5.2,   0.00,   0.00, 1029.6,   73.0, -999.0
13-02-2023, 00:09:23,    124,    0.2,    5.3,   0.00,   0.00, 1029.5,   73.0, -999.0
13-02-2023, 00:09:33,    124,    0.0,    5.3,   0.00,   0.00, 1029.4,   72.9, -999.0
13-02-2023, 00:09:43,    123,    0.2,    5.3,   0.00,   0.00, 1029.5,   72.8, -999.0
13-02-2023, 00:09:53,    123,    0.6,    5.3,   0.00,   0.00, 1029.5,   73.0, -999.0
13-02-2023, 00:10:03,    122,    0.3,    5.4,   0.00,   0.00, 1029.5,   73.0, -999.0
13-02-2023, 00:10:13,    122,    0.0,    5.4,   0.00,   0.00, 1029.4,   72.6, -999.0
13-02-2023, 00:10:23,    122,    0.0,    5.4,   0.00,   0.00, 1029.4,   72.4, -999.0
13-02-2023, 00:10:32,    123,    0.0,    5.4,   0.00,   0.00, 1029.4,   72.4, -999.0
13-02-2023, 00:10:43,    123,    0.0,    5.4,   0.00,   0.00, 1029.4,   72.3, -999.0
13-02-2023, 00:10:53,    123,    0.1,    5.3,   0.00,   0.00, 1029.5,   72.3, -999.0
13-02-2023, 00:11:03,    123,    0.6,    5.5,   0.00,   0.00, 1029.5,   72.5, -999.0
13-02-2023, 00:11:12,    129,    0.2,    5.5,   0.00,   0.00, 1029.5,   72.3, -999.0
13-02-2023, 00:11:23,    131,    0.2,    5.5,   0.00,   0.00, 1029.5,   72.3, -999.0
13-02-2023, 00:11:33,    131,    0.1,    5.4,   0.00,   0.00, 1029.4,   72.2, -999.0
13-02-2023, 00:11:42,    130,    0.6,    5.5,   0.00,   0.00, 1029.5,   72.2, -999.0
13-02-2023, 00:11:52,    120,    0.9,    5.6,   0.00,   0.00, 1029.6,   72.3, -999.0
13-02-2023, 00:12:03,    121,    1.0,    5.5,   0.00,   0.00, 1029.5,   72.3, -999.0
13-02-2023, 00:12:13,    121,    1.0,    5.4,   0.00,   0.00, 1029.5,   72.1, -999.0
13-02-2023, 00:12:22,    118,    0.8,    5.5,   0.00,   0.00, 1029.6,   72.1, -999.0
13-02-2023, 00:12:33,    128,    1.6,    5.5,   0.00,   0.00, 1029.5,   72.1, -999.0
13-02-2023, 00:12:43,    119,    1.5,    5.4,   0.00,   0.00, 1029.6,   71.9, -999.0
13-02-2023, 00:12:52,    102,    1.9,    5.4,   0.00,   0.00, 1029.5,   71.7, -999.0
13-02-2023, 00:13:02,    122,    1.7,    5.4,   0.00,   0.00, 1029.6,   71.7, -999.0
13-02-2023, 00:13:13,    125,    1.7,    5.3,   0.00,   0.00, 1029.6,   71.9, -999.0
13-02-2023, 00:13:22,    139,    1.6,    5.3,   0.00,   0.00, 1029.6,   72.0, -999.0
13-02-2023, 00:13:32,     97,    2.1,    5.3,   0.00,   0.00, 1029.6,   72.1, -999.0
13-02-2023, 00:13:42,    107,    0.4,    5.3,   0.00,   0.00, 1029.5,   72.0, -999.0
13-02-2023, 00:13:53,    159,    0.3,    5.3,   0.00,   0.00, 1029.5,   72.3, -999.0
13-02-2023, 00:14:02,    159,    0.4,    5.3,   0.00,   0.00, 1029.5,   72.3, -999.0
13-02-2023, 00:14:12,    138,    1.2,    5.2,   0.00,   0.00, 1029.6,   72.3, -999.0
13-02-2023, 00:14:22,    147,    1.4,    5.2,   0.00,   0.00, 1029.6,   72.3, -999.0
13-02-2023, 00:14:32,    150,    0.7,    5.2,   0.00,   0.00, 1029.5,   72.3, -999.0
13-02-2023, 00:14:42,    151,    0.8,    5.1,   0.00,   0.00, 1029.6,   72.5, -999.0
13-02-2023, 00:14:52,    150,    0.0,    5.1,   0.00,   0.00, 1029.5,   72.3, -999.0
13-02-2023, 00:15:02,    160,    0.1,    5.1,   0.00,   0.00, 1029.5,   72.4, -999.0
13-02-2023, 00:15:12,    159,    0.8,    5.1,   0.00,   0.00, 1029.5,   72.7, -999.0
13-02-2023, 00:15:22,    159,    0.5,    5.1,   0.00,   0.00, 1029.6,   72.8, -999.0
13-02-2023, 00:15:32,    159,    0.0,    5.0,   0.00,   0.00, 1029.5,   72.6, -999.0
13-02-2023, 00:15:42,    157,    0.3,    5.1,   0.00,   0.00, 1029.5,   73.0, -999.0
13-02-2023, 00:15:52,    157,    0.2,    5.1,   0.00,   0.00, 1029.5,   73.0, -999.0
13-02-2023, 00:16:02,    157,    0.0,    5.1,   0.00,   0.00, 1029.4,   72.7, -999.0
13-02-2023, 00:16:12,    157,    0.4,    5.1,   0.00,   0.00, 1029.5,   72.9, -999.0
13-02-2023, 00:16:22,    138,    1.6,    5.2,   0.00,   0.00, 1029.6,   72.9, -999.0
13-02-2023, 00:16:32,    138,    1.8,    5.1,   0.00,   0.00, 1029.6,   72.7, -999.0
13-02-2023, 00:16:42,    137,    1.2,    5.1,   0.00,   0.00, 1029.6,   72.9, -999.0
13-02-2023, 00:16:52,    119,    2.2,    5.2,   0.00,   0.00, 1029.6,   73.1, -999.0
13-02-2023, 00:17:02,    133,    1.0,    5.1,   0.00,   0.00, 1029.6,   73.2, -999.0
13-02-2023, 00:17:12,    136,    2.9,    5.2,   0.00,   0.00, 1029.6,   73.1, -999.0
13-02-2023, 00:17:22,    122,    2.8,    5.2,   0.00,   0.00, 1029.6,   72.7, -999.0
13-02-2023, 00:17:32,    119,    1.9,    5.2,   0.00,   0.00, 1029.6,   72.5, -999.0
13-02-2023, 00:17:42,    122,    1.7,    5.2,   0.00,   0.00, 1029.6,   72.5, -999.0
13-02-2023, 00:17:52,    137,    0.2,    5.3,   0.00,   0.00, 1029.5,   72.6, -999.0
13-02-2023, 00:18:02,    139,    0.0,    5.2,   0.00,   0.00, 1029.4,   72.4, -999.0
13-02-2023, 00:18:12,    139,    0.0,    5.2,   0.00,   0.00, 1029.4,   72.4, -999.0
13-02-2023, 00:18:22,    171,    0.1,    5.2,   0.00,   0.00, 1029.5,   72.5, -999.0
13-02-2023, 00:18:32,    142,    0.8,    5.3,   0.00,   0.00, 1029.5,   72.4, -999.0
13-02-2023, 00:18:42,    142,    0.2,    5.3,   0.00,   0.00, 1029.5,   72.3, -999.0
13-02-2023, 00:18:52,    142,    0.0,    5.1,   0.00,   0.00, 1029.4,   72.0, -999.0
13-02-2023, 00:19:02,    142,    0.1,    5.2,   0.00,   0.00, 1029.5,   72.2, -999.0
13-02-2023, 00:19:12,    142,    0.0,    5.2,   0.00,   0.00, 1029.4,   72.2, -999.0
13-02-2023, 00:19:22,    141,    0.0,    5.2,   0.00,   0.00, 1029.4,   72.2, -999.0
13-02-2023, 00:19:32,    142,    0.0,    5.2,   0.00,   0.00, 1029.4,   72.2, -999.0
13-02-2023, 00:19:42,    125,    0.5,    5.3,   0.00,   0.00, 1029.4,   72.3, -999.0
13-02-2023, 00:19:52,    143,    0.5,    5.3,   0.00,   0.00, 1029.6,   72.5, -999.0
13-02-2023, 00:20:02,    115,    2.3,    5.3,   0.00,   0.00, 1029.6,   72.6, -999.0
13-02-2023, 00:20:12,    113,    0.6,    5.3,   0.00,   0.00, 1029.5,   72.5, -999.0
13-02-2023, 00:20:22,    115,    0.1,    5.4,   0.00,   0.00, 1029.5,   72.5, -999.0
13-02-2023, 00:20:32,    148,    0.0,    5.3,   0.00,   0.00, 1029.4,   72.2, -999.0
13-02-2023, 00:20:42,    149,    0.0,    5.2,   0.00,   0.00, 1029.4,   72.1, -999.0
13-02-2023, 00:20:52,    147,    0.0,    5.3,   0.00,   0.00, 1029.5,   72.1, -999.0
13-02-2023, 00:21:02,    147,    0.0,    5.3,   0.00,   0.00, 1029.4,   72.1, -999.0
13-02-2023, 00:21:12,    147,    0.0,    5.4,   0.00,   0.00, 1029.4,   72.0, -999.0
13-02-2023, 00:21:21,    147,    0.0,    5.3,   0.00,   0.00, 1029.4,   71.9, -999.0
13-02-2023, 00:21:32,    147,    0.0,    5.3,   0.00,   0.00, 1029.4,   71.8, -999.0
13-02-2023, 00:21:42,    147,    0.0,    5.3,   0.00,   0.00, 1029.4,   71.9, -999.0
13-02-2023, 00:21:52,    149,    0.5,    5.3,   0.00,   0.00, 1029.6,   72.2, -999.0
13-02-2023, 00:22:01,    149,    0.0,    5.3,   0.00,   0.00, 1029.4,   71.8, -999.0
13-02-2023, 00:22:12,    148,    0.0,    5.2,   0.00,   0.00, 1029.4,   71.8, -999.0
13-02-2023, 00:22:22,    148,    0.0,    5.2,   0.00,   0.00, 1029.4,   71.9, -999.0
13-02-2023, 00:22:31,    148,    0.0,    5.2,   0.00,   0.00, 1029.4,   71.9, -999.0
13-02-2023, 00:22:41,    148,    0.0,    5.2,   0.00,   0.00, 1029.4,   72.0, -999.0
13-02-2023, 00:22:52,    148,    0.0,    5.2,   0.00,   0.00, 1029.4,   72.0, -999.0
13-02-2023, 00:23:02,    149,    0.0,    5.2,   0.00,   0.00, 1029.4,   72.1, -999.0
13-02-2023, 00:23:11,    148,    0.0,    5.2,   0.00,   0.00, 1029.4,   72.1, -999.0
13-02-2023, 00:23:21,    148,    0.0,    5.1,   0.00,   0.00, 1029.4,   72.0, -999.0
13-02-2023, 00:23:32,    148,    0.0,    5.1,   0.00,   0.00, 1029.4,   72.1, -999.0
13-02-2023, 00:23:41,    148,    0.0,    5.2,   0.00,   0.00, 1029.4,   72.2, -999.0
13-02-2023, 00:23:51,    148,    0.0,    5.2,   0.00,   0.00, 1029.4,   72.2, -999.0
13-02-2023, 00:24:01,    148,    0.0,    5.2,   0.00,   0.00, 1029.5,   72.4, -999.0
13-02-2023, 00:24:12,    148,    0.2,    5.3,   0.00,   0.00, 1029.5,   72.5, -999.0
13-02-2023, 00:24:21,    148,    0.1,    5.4,   0.00,   0.00, 1029.5,   72.4, -999.0
13-02-2023, 00:24:31,    148,    0.5,    5.5,   0.00,   0.00, 1029.6,   72.7, -999.0
13-02-2023, 00:24:41,    161,    0.8,    5.4,   0.00,   0.00, 1029.6,   72.3, -999.0
13-02-2023, 00:24:51,    160,    0.6,    5.4,   0.00,   0.00, 1029.6,   72.2, -999.0
13-02-2023, 00:25:01,    155,    0.6,    5.4,   0.00,   0.00, 1029.5,   72.2, -999.0
13-02-2023, 00:25:11,    154,    0.0,    5.2,   0.00,   0.00, 1029.5,   72.1, -999.0
13-02-2023, 00:25:21,    154,    0.0,    5.2,   0.00,   0.00, 1029.4,   72.1, -999.0
13-02-2023, 00:25:31,    154,    0.2,    5.3,   0.00,   0.00, 1029.5,   72.3, -999.0
13-02-2023, 00:25:41,    154,    0.0,    5.4,   0.00,   0.00, 1029.4,   72.2, -999.0
13-02-2023, 00:25:51,    154,    0.0,    5.4,   0.00,   0.00, 1029.4,   72.0, -999.0
13-02-2023, 00:26:01,    154,    0.0,    5.3,   0.00,   0.00, 1029.4,   71.9, -999.0
13-02-2023, 00:26:11,    154,    0.0,    5.3,   0.00,   0.00, 1029.4,   71.8, -999.0
13-02-2023, 00:26:21,    154,    0.0,    5.3,   0.00,   0.00, 1029.4,   72.0, -999.0
13-02-2023, 00:26:31,    154,    0.0,    5.3,   0.00,   0.00, 1029.4,   72.1, -999.0
13-02-2023, 00:26:41,    154,    0.0,    5.3,   0.00,   0.00, 1029.4,   72.0, -999.0
13-02-2023, 00:26:51,    154,    0.0,    5.4,   0.00,   0.00, 1029.4,   72.2, -999.0
13-02-2023, 00:27:01,    154,    0.0,    5.4,   0.00,   0.00, 1029.4,   71.9, -999.0
13-02-2023, 00:27:11,    154,    0.0,    5.4,   0.00,   0.00, 1029.4,   71.7, -999.0
13-02-2023, 00:27:21,    154,    0.0,    5.3,   0.00,   0.00, 1029.4,   71.7, -999.0
13-02-2023, 00:27:31,    154,    0.0,    5.3,   0.00,   0.00, 1029.4,   71.7, -999.0
13-02-2023, 00:27:41,    154,    0.5,    5.4,   0.00,   0.00, 1029.5,   72.0, -999.0
13-02-2023, 00:27:51,    154,    0.0,    5.2,   0.00,   0.00, 1029.4,   71.7, -999.0
13-02-2023, 00:28:01,    154,    0.0,    5.2,   0.00,   0.00, 1029.4,   71.8, -999.0
13-02-2023, 00:28:11,    124,    1.2,    5.2,   0.00,   0.00, 1029.5,   72.4, -999.0
13-02-2023, 00:28:21,    124,    0.5,    5.3,   0.00,   0.00, 1029.5,   72.5, -999.0
13-02-2023, 00:28:31,    124,    0.1,    5.3,   0.00,   0.00, 1029.4,   72.3, -999.0
13-02-2023, 00:28:41,    124,    0.0,    5.1,   0.00,   0.00, 1029.4,   72.1, -999.0
13-02-2023, 00:28:51,    124,    0.0,    5.2,   0.00,   0.00, 1029.4,   72.2, -999.0
13-02-2023, 00:29:01,    124,    0.3,    5.3,   0.00,   0.00, 1029.5,   72.6, -999.0
13-02-2023, 00:29:11,    124,    0.1,    5.3,   0.00,   0.00, 1029.5,   72.5, -999.0
13-02-2023, 00:29:21,    124,    0.0,    5.1,   0.00,   0.00, 1029.4,   72.5, -999.0
13-02-2023, 00:29:31,    124,    0.0,    5.3,   0.00,   0.00, 1029.5,   72.6, -999.0
13-02-2023, 00:29:41,    124,    0.0,    5.3,   0.00,   0.00, 1029.4,   72.4, -999.0
13-02-2023, 00:29:51,    125,    0.4,    5.3,   0.00,   0.00, 1029.5,   72.4, -999.0
13-02-2023, 00:30:01,    141,    0.7,    5.3,   0.00,   0.00, 1029.5,   72.3, -999.0
13-02-2023, 00:30:11,    144,    0.3,    5.3,   0.00,   0.00, 1029.5,   72.3, -999.0
13-02-2023, 00:30:21,    146,    0.0,    5.1,   0.00,   0.00, 1029.4,   72.0, -999.0
13-02-2023, 00:30:31,    145,    0.0,    5.1,   0.00,   0.00, 1029.4,   72.2, -999.0
13-02-2023, 00:30:41,    146,    0.0,    5.1,   0.00,   0.00, 1029.4,   72.4, -999.0
13-02-2023, 00:30:51,    145,    0.3,    5.2,   0.00,   0.00, 1029.5,   72.8, -999.0
13-02-2023, 00:31:01,    145,    0.5,    5.3,   0.00,   0.00, 1029.5,   73.0, -999.0
13-02-2023, 00:31:11,    145,    0.1,    5.3,   0.00,   0.00, 1029.5,   72.9, -999.0
13-02-2023, 00:31:21,    145,    0.0,    5.2,   0.00,   0.00, 1029.4,   72.6, -999.0
13-02-2023, 00:31:31,    145,    0.0,    5.1,   0.00,   0.00, 1029.4,   72.5, -999.0
13-02-2023, 00:31:40,    145,    0.0,    5.3,   0.00,   0.00, 1029.4,   72.6, -999.0
13-02-2023, 00:31:51,    146,    0.0,    5.3,   0.00,   0.00, 1029.4,   72.7, -999.0
13-02-2023, 00:32:01,    146,    0.0,    5.3,   0.00,   0.00, 1029.4,   72.5, -999.0
13-02-2023, 00:32:10,    146,    0.0,    5.2,   0.00,   0.00, 1029.4,   72.3, -999.0
13-02-2023, 00:32:20,    146,    0.0,    5.2,   0.00,   0.00, 1029.4,   72.4, -999.0
13-02-2023, 00:32:31,    146,    0.0,    5.2,   0.00,   0.00, 1029.4,   72.5, -999.0
13-02-2023, 00:32:41,    153,    0.0,    5.2,   0.00,   0.00, 1029.5,   72.7, -999.0
13-02-2023, 00:32:50,    154,    0.0,    5.2,   0.00,   0.00, 1029.4,   72.6, -999.0
13-02-2023, 00:33:01,    153,    0.0,    5.1,   0.00,   0.00, 1029.4,   72.5, -999.0
13-02-2023, 00:33:11,    157,    1.3,    5.3,   0.00,   0.00, 1029.6,   72.8, -999.0
13-02-2023, 00:33:20,    154,    1.3,    5.2,   0.00,   0.00, 1029.6,   72.8, -999.0
13-02-2023, 00:33:30,    134,    0.6,    5.2,   0.00,   0.00, 1029.5,   72.7, -999.0
13-02-2023, 00:33:41,    137,    0.0,    5.1,   0.00,   0.00, 1029.4,   72.6, -999.0
13-02-2023, 00:33:51,    148,    0.3,    5.1,   0.00,   0.00, 1029.5,   72.9, -999.0
13-02-2023, 00:34:00,    147,    0.9,    5.1,   0.00,   0.00, 1029.6,   73.1, -999.0
13-02-2023, 00:34:10,    166,    0.7,    5.1,   0.00,   0.00, 1029.5,   73.2, -999.0
13-02-2023, 00:34:21,    170,    0.4,    5.1,   0.00,   0.00, 1029.5,   72.9, -999.0
13-02-2023, 00:34:30,    170,    0.0,    5.0,   0.00,   0.00, 1029.4,   72.8, -999.0
13-02-2023, 00:34:40,    169,    0.0,    5.0,   0.00,   0.00, 1029.4,   73.1, -999.0
13-02-2023, 00:34:50,    136,    0.8,    5.1,   0.00,   0.00, 1029.5,   73.6, -999.0
13-02-2023, 00:35:00,    135,    0.3,    5.2,   0.00,   0.00, 1029.5,   73.6, -999.0
13-02-2023, 00:35:10,    135,    0.0,    5.2,   0.00,   0.00, 1029.4,   73.6, -999.0
13-02-2023, 00:35:20,    136,    0.0,    5.2,   0.00,   0.00, 1029.4,   73.5, -999.0
13-02-2023, 00:35:30,    135,    0.0,    5.1,   0.00,   0.00, 1029.4,   73.4, -999.0
13-02-2023, 00:35:40,    136,    0.2,    5.2,   0.00,   0.00, 1029.5,   73.3, -999.0
13-02-2023, 00:35:50,    135,    0.2,    5.3,   0.00,   0.00, 1029.5,   73.2, -999.0
13-02-2023, 00:36:00,    123,    0.8,    5.3,   0.00,   0.00, 1029.5,   73.2, -999.0
13-02-2023, 00:36:10,    123,    0.5,    5.4,   0.00,   0.00, 1029.5,   73.5, -999.0
13-02-2023, 00:36:20,    127,    0.2,    5.3,   0.00,   0.00, 1029.5,   73.4, -999.0
13-02-2023, 00:36:30,    127,    0.0,    5.3,   0.00,   0.00, 1029.4,   73.0, -999.0
13-02-2023, 00:36:40,    127,    0.2,    5.3,   0.00,   0.00, 1029.5,   73.0, -999.0
13-02-2023, 00:36:50,    127,    0.1,    5.3,   0.00,   0.00, 1029.5,   72.9, -999.0
13-02-2023, 00:37:00,    127,    0.0,    5.2,   0.00,   0.00, 1029.4,   72.9, -999.0
13-02-2023, 00:37:10,    127,    0.5,    5.3,   0.00,   0.00, 1029.5,   73.2, -999.0
13-02-2023, 00:37:20,    126,    0.8,    5.4,   0.00,   0.00, 1029.5,   73.3, -999.0
13-02-2023, 00:37:30,    130,    0.1,    5.3,   0.00,   0.00, 1029.5,   73.1, -999.0
13-02-2023, 00:37:40,    130,    0.0,    5.2,   0.00,   0.00, 1029.4,   72.9, -999.0
13-02-2023, 00:37:50,    130,    0.9,    5.2,   0.00,   0.00, 1029.5,   73.3, -999.0
13-02-2023, 00:38:00,    129,    0.8,    5.3,   0.00,   0.00, 1029.5,   73.3, -999.0
13-02-2023, 00:38:10,    129,    0.4,    5.3,   0.00,   0.00, 1029.5,   73.5, -999.0
13-02-2023, 00:38:20,    129,    0.5,    5.3,   0.00,   0.00, 1029.5,   73.6, -999.0
13-02-2023, 00:38:30,    129,    0.6,    5.3,   0.00,   0.00, 1029.5,   73.4, -999.0
13-02-2023, 00:38:40,    129,    0.0,    5.4,   0.00,   0.00, 1029.5,   73.1, -999.0
13-02-2023, 00:38:50,    129,    0.2,    5.3,   0.00,   0.00, 1029.5,   73.2, -999.0
13-02-2023, 00:39:00,    129,    0.1,    5.4,   0.00,   0.00, 1029.5,   72.9, -999.0
13-02-2023, 00:39:10,    130,    0.0,    5.4,   0.00,   0.00, 1029.4,   72.6, -999.0
13-02-2023, 00:39:20,    129,    0.0,    5.3,   0.00,   0.00, 1029.4,   72.5, -999.0
13-02-2023, 00:39:30,    130,    0.0,    5.3,   0.00,   0.00, 1029.4,   72.6, -999.0
13-02-2023, 00:39:40,    130,    0.5,    5.4,   0.00,   0.00, 1029.5,   72.9, -999.0
13-02-2023, 00:39:50,    130,    0.2,    5.3,   0.00,   0.00, 1029.5,   72.7, -999.0
13-02-2023, 00:40:00,    130,    0.0,    5.2,   0.00,   0.00, 1029.5,   72.5, -999.0
13-02-2023, 00:40:10,    131,    0.0,    5.3,   0.00,   0.00, 1029.4,   72.4, -999.0
13-02-2023, 00:40:20,    159,    0.5,    5.2,   0.00,   0.00, 1029.5,   72.7, -999.0
13-02-2023, 00:40:30,    167,    0.8,    5.3,   0.00,   0.00, 1029.5,   72.8, -999.0
13-02-2023, 00:40:40,    165,    1.1,    5.2,   0.00,   0.00, 1029.5,   73.0, -999.0
13-02-2023, 00:40:50,    164,    0.6,    5.2,   0.00,   0.00, 1029.6,   73.0, -999.0
13-02-2023, 00:41:00,    164,    0.0,    5.1,   0.00,   0.00, 1029.4,   72.9, -999.0
13-02-2023, 00:41:10,    164,    0.0,    5.1,   0.00,   0.00, 1029.4,   73.1, -999.0
13-02-2023, 00:41:20,    164,    0.0,    5.1,   0.00,   0.00, 1029.4,   73.1, -999.0
13-02-2023, 00:41:30,    123,    0.7,    5.2,   0.00,   0.00, 1029.6,   73.4, -999.0
13-02-2023, 00:41:40,    120,    0.8,    5.3,   0.00,   0.00, 1029.5,   73.5, -999.0
13-02-2023, 00:41:49,    119,    1.1,    5.4,   0.00,   0.00, 1029.6,   73.6, -999.0
13-02-2023, 00:42:00,    126,    1.1,    5.3,   0.00,   0.00, 1029.5,   73.5, -999.0
13-02-2023, 00:42:10,    125,    0.0,    5.3,   0.00,   0.00, 1029.4,   73.2, -999.0
13-02-2023, 00:42:20,    126,    0.0,    5.2,   0.00,   0.00, 1029.4,   72.9, -999.0
13-02-2023, 00:42:29,    126,    0.0,    5.2,   0.00,   0.00, 1029.4,   72.8, -999.0
13-02-2023, 00:42:40,    126,    0.0,    5.2,   0.00,   0.00, 1029.4,   72.9, -999.0
13-02-2023, 00:42:50,    125,    0.0,    5.3,   0.00,   0.00, 1029.4,   72.8, -999.0
13-02-2023, 00:42:59,    126,    0.0,    5.2,   0.00,   0.00, 1029.4,   72.9, -999.0
13-02-2023, 00:43:09,    141,    0.0,    5.3,   0.00,   0.00, 1029.4,   72.7, -999.0
13-02-2023, 00:43:20,    141,    0.0,    5.2,   0.00,   0.00, 1029.4,   72.6, -999.0
13-02-2023, 00:43:29,    141,    0.0,    5.2,   0.00,   0.00, 1029.4,   72.6, -999.0
13-02-2023, 00:43:39,    141,    0.0,    5.1,   0.00,   0.00, 1029.5,   72.7, -999.0
13-02-2023, 00:43:49,    135,    1.1,    5.2,   0.00,   0.00, 1029.5,   73.0, -999.0
13-02-2023, 00:44:00,    157,    1.1,    5.2,   0.00,   0.00, 1029.6,   73.1, -999.0
13-02-2023, 00:44:09,    141,    1.4,    5.1,   0.00,   0.00, 1029.5,   73.2, -999.0
13-02-2023, 00:44:19,    146,    2.2,    5.1,   0.00,   0.00, 1029.6,   73.1, -999.0
13-02-2023, 00:44:30,    136,    2.3,    5.1,   0.00,   0.00, 1029.5,   73.1, -999.0
13-02-2023, 00:44:39,    162,    1.1,    5.1,   0.00,   0.00, 1029.6,   73.2, -999.0
13-02-2023, 00:44:49,    147,    0.5,    5.0,   0.00,   0.00, 1029.5,   73.2, -999.0
13-02-2023, 00:44:59,    151,    0.2,    5.0,   0.00,   0.00, 1029.5,   73.4, -999.0
13-02-2023, 00:45:10,    150,    0.2,    5.0,   0.00,   0.00, 1029.4,   73.4, -999.0
13-02-2023, 00:45:19,    165,    0.6,    5.1,   0.00,   0.00, 1029.5,   73.7, -999.0
13-02-2023, 00:45:29,    154,    0.5,    5.1,   0.00,   0.00, 1029.5,   73.7, -999.0
13-02-2023, 00:45:39,    156,    0.1,    5.0,   0.00,   0.00, 1029.5,   73.5, -999.0
13-02-2023, 00:45:49,    155,    0.5,    5.1,   0.00,   0.00, 1029.5,   73.6, -999.0
13-02-2023, 00:45:59,    107,    1.1,    5.1,   0.00,   0.00, 1029.6,   73.7, -999.0
13-02-2023, 00:46:09,    105,    1.9,    5.1,   0.00,   0.00, 1029.6,   73.6, -999.0
13-02-2023, 00:46:19,    137,    1.2,    5.1,   0.00,   0.00, 1029.6,   73.6, -999.0
13-02-2023, 00:46:29,    127,    1.8,    5.2,   0.00,   0.00, 1029.5,   73.6, -999.0
13-02-2023, 00:46:39,    127,    1.0,    5.2,   0.00,   0.00, 1029.5,   73.2, -999.0
13-02-2023, 00:46:49,    122,    0.7,    5.2,   0.00,   0.00, 1029.6,   73.0, -999.0